Location: *
(50.3440°N, 18.6237°E)
Time: 16:11:59
(UTC+00:00)

CZ-4B R/B - Pass Details

Date: 30 November 2020
Orbit: 390 x 458 km, 97.6° (Epoch: 17 January)

Event Time Altitude Azimuth Distance (km) Brightness Sun altitude
Exits shadow 16:07:23 22° 61° (ENE) 938 2.4 -12.5°
Maximum altitude 16:08:29 28° 97° (E) 801 2.2 -12.6°
Drops below altitude 10° 16:11:14 10° 159° (SSE) 1,472 4.0 -13.1°
Sets 16:13:25 0° 171° (S) 2,341 5.2 -13.4°
